Location: Boitzum
(52.1496°N, 9.6943°E)
Time: 23:36:08
(UTC+00:00)

CBERS-1 - Pass Details

Date: 13 January 2026
Orbit: 765 x 772 km, 98.9° (Epoch: 17 February)

Event Time Altitude Azimuth Distance (km) Brightness Sun altitude
Rises 06:25:32 0° 11° (NNE) 3,247 7.1 -8.7°
Reaches altitude 10° 06:27:56 10° 5° (N) 2,316 6.3 -8.4°
Maximum altitude 06:32:43 43° 295° (WNW) 1,066 4.3 -7.7°
Drops below altitude 10° 06:37:30 10° 225° (SW) 2,302 6.3 -7.1°
Sets 06:39:53 0° 219° (SW) 3,225 7.1 -6.7°
